Ellsworth AFB, SD

3:19 AM MDT on June 28, 2017 (GMT -0600)
Ellsworth Air Force Base

Weather History for KRCA - April, 2014

Change the Weather History Date:

Wednesday, April 9, 2014

  Actual Average Record
Temperature  
Mean Temperature 62 °F -  
Max Temperature 77 °F 52 °F 80 °F (2016)
Min Temperature 47 °F 29 °F 12 °F (2013)
Degree Days  
Heating Degree Days 3    
Growing Degree Days 12 (Base 50)    
Moisture  
Dew Point 31 °F    
Average Humidity 35    
Maximum Humidity 63    
Minimum Humidity 14    
Precipitation  
Precipitation 0.00 in - - ()
Sea Level Pressure  
Sea Level Pressure 29.75 in    
Wind  
Wind Speed 13 mph (WNW)    
Max Wind Speed 33 mph    
Max Gust Speed 44 mph    
Visibility 10 miles    
Events      
Averages and records for this station are not official NWS values.
T = Trace of Precipitation, MM = Missing Value Source: NWS Daily Summary

Daily Weather History Graph

Daily Weather History Graph

Search for Another Location

Airport or City:

Trip Planner

Search our weather history database for the weather conditions in past years. The results will help you decide how hot, cold, wet, or windy it might be!

Date:

Astronomy

Apr. 09, 2014 Rise Set
Actual Time 6:19 AM MDT 7:29 PM MDT
Civil Twilight 5:49 AM MDT 7:59 PM MDT
Nautical Twilight 5:14 AM MDT 8:34 PM MDT
Astronomical Twilight 4:36 AM MDT 9:12 PM MDT
Moon 2:09 PM MDT (4/9) 3:20 AM MDT (4/9)
Length of Visible Light 14h 09m
Length of Day
13h 10m
Waxing Gibbous, 72% of the Moon is Illuminated
Apr 9
Waxing Gibbous
Apr 15
Full
Apr 22
Last Quarter
Apr 29
New
May 6
First Quarter

Hourly Weather History & Observations

Time (MDT) Temp. Dew Point Humidity Pressure Visibility Wind Dir Wind Speed Gust Speed Precip Events Conditions
12:58 AM 47.1 °F 28.0 °F 48% 29.86 in 10.0 mi WSW 8.1 mph - N/A   Clear
1:58 AM 49.5 °F 25.7 °F 40% 29.85 in 10.0 mi WSW 5.8 mph - N/A   Clear
2:58 AM 50.5 °F 25.9 °F 38% 29.83 in 10.0 mi SW 4.6 mph - N/A   Clear
3:58 AM 47.3 °F 26.2 °F 44% 29.82 in 10.0 mi West 5.8 mph - N/A   Clear
4:58 AM 48.0 °F 27.9 °F 46% 29.81 in 10.0 mi West 6.9 mph - N/A   Clear
5:58 AM 47.5 °F 27.7 °F 46% 29.79 in 10.0 mi SW 8.1 mph - N/A   Clear
6:58 AM 49.3 °F 26.8 °F 42% 29.79 in 10.0 mi SW 5.8 mph - N/A   Clear
7:58 AM 52.0 °F 30.7 °F 44% 29.79 in 10.0 mi West 5.8 mph - N/A   Clear
8:58 AM 60.3 °F 32.0 °F 34% 29.77 in 10.0 mi West 6.9 mph - N/A   Clear
9:58 AM 67.3 °F 31.5 °F 26% 29.76 in 10.0 mi West 9.2 mph - N/A   Clear
10:58 AM 72.3 °F 30.4 °F 21% 29.73 in 10.0 mi SW 9.2 mph - N/A   Clear
11:58 AM 75.2 °F 27.1 °F 17% 29.70 in 10.0 mi West 17.3 mph 21.9 mph N/A   Clear
12:06 PM 75.2 °F 26.6 °F 17% 29.73 in 10.0 mi WNW 17.3 mph 26.5 mph N/A   Scattered Clouds
12:58 PM 75.2 °F 26.2 °F 16% 29.68 in 10.0 mi WSW 8.1 mph 17.3 mph N/A   Mostly Cloudy
1:04 PM 75.2 °F 26.6 °F 17% 29.71 in 10.0 mi WNW 11.5 mph - N/A   Mostly Cloudy
1:23 PM 73.4 °F 28.4 °F 19% 29.71 in 10.0 mi NW 20.7 mph 25.3 mph N/A   Mostly Cloudy
1:58 PM 75.9 °F 28.6 °F 17% 29.67 in 10.0 mi WNW 13.8 mph 21.9 mph N/A   Clear
2:58 PM 77.0 °F 25.2 °F 15% 29.63 in 10.0 mi WNW 18.4 mph 29.9 mph N/A   Clear
3:38 PM 77.0 °F 24.8 °F 14% 29.66 in 10.0 mi NW 18.4 mph - N/A   Clear
3:58 PM 76.5 °F 26.4 °F 16% 29.62 in 10.0 mi NNW 17.3 mph 23.0 mph N/A   Partly Cloudy
4:54 PM 75.2 °F 32.0 °F 21% 29.65 in 10.0 mi North 23.0 mph 28.8 mph N/A   Mostly Cloudy
4:58 PM 74.3 °F 31.1 °F 20% 29.62 in 10.0 mi North 23.0 mph 28.8 mph N/A   Mostly Cloudy
5:58 PM 64.4 °F 38.5 °F 38% 29.70 in 10.0 mi North 24.2 mph - N/A   Overcast
6:04 PM 64.4 °F 37.4 °F 37% 29.71 in 10.0 mi North 28.8 mph 33.4 mph N/A   Squalls
6:57 PM 60.8 °F 37.4 °F 42% 29.77 in 10.0 mi North 33.4 mph 43.7 mph N/A   Squalls
6:58 PM 60.4 °F 38.1 °F 44% 29.76 in 10.0 mi North 33.4 mph 43.7 mph N/A   Mostly Cloudy
7:07 PM 59.0 °F 37.4 °F 45% 29.77 in 10.0 mi North 29.9 mph 40.3 mph N/A   Squalls
7:58 PM 55.6 °F 39.2 °F 54% 29.80 in 10.0 mi North 23.0 mph 27.6 mph N/A   Partly Cloudy
8:58 PM 52.0 °F 39.0 °F 61% 29.80 in 10.0 mi NNW 24.2 mph 31.1 mph N/A   Overcast
9:58 PM 50.4 °F 38.3 °F 63% 29.83 in 10.0 mi NNW 23.0 mph 31.1 mph N/A   Overcast
10:58 PM 49.8 °F 34.5 °F 56% 29.84 in 10.0 mi NNW 19.6 mph - N/A   Overcast
11:58 PM 49.8 °F 33.4 °F 53% 29.86 in 10.0 mi NNW 18.4 mph - N/A   Overcast